Cedar Key Weather Center

Moon Phase Calendar



Online Cameras

 


      

Current Conditions in Inglis
10/21/2021 7:57:43 AM

65°F
Feels Like 64
Clouds
Humidity
76%
Pressure
30.15"
Wind
7.7 mph (E)
Dew Point
57°F
UV Index
0/10 (Low)
Visibility
6 mi

Hourly Forecast

Date & Time Thu, Oct 21
7:00 AM
Thu, Oct 21
8:00 AM
Thu, Oct 21
9:00 AM
Thu, Oct 21
10:00 AM
Thu, Oct 21
11:00 AM
Thu, Oct 21
12:00 PM
Thu, Oct 21
1:00 PM
Thu, Oct 21
2:00 PM
Thu, Oct 21
3:00 PM
Thu, Oct 21
4:00 PM
Thu, Oct 21
5:00 PM
Thu, Oct 21
6:00 PM
Thu, Oct 21
7:00 PM
Thu, Oct 21
8:00 PM
Thu, Oct 21
9:00 PM
Thu, Oct 21
10:00 PM
Thu, Oct 21
11:00 PM
Fri, Oct 22
12:00 AM
Fri, Oct 22
1:00 AM
Fri, Oct 22
2:00 AM
Fri, Oct 22
3:00 AM
Fri, Oct 22
4:00 AM
Fri, Oct 22
5:00 AM
Fri, Oct 22
6:00 AM
Fri, Oct 22
7:00 AM
Fri, Oct 22
8:00 AM
Fri, Oct 22
9:00 AM
Fri, Oct 22
10:00 AM
Fri, Oct 22
11:00 AM
Fri, Oct 22
12:00 PM
Fri, Oct 22
1:00 PM
Fri, Oct 22
2:00 PM
Fri, Oct 22
3:00 PM
Fri, Oct 22
4:00 PM
Fri, Oct 22
5:00 PM
Fri, Oct 22
6:00 PM
Fri, Oct 22
7:00 PM
Fri, Oct 22
8:00 PM
Fri, Oct 22
9:00 PM
Fri, Oct 22
10:00 PM
Fri, Oct 22
11:00 PM
Sat, Oct 23
12:00 AM
Sat, Oct 23
1:00 AM
Sat, Oct 23
2:00 AM
Sat, Oct 23
3:00 AM
Sat, Oct 23
4:00 AM
Sat, Oct 23
5:00 AM
Sat, Oct 23
6:00 AM
Condition
Clouds

Clouds

Clouds

Clouds

Clouds

Clouds

Clouds

Clouds

Clouds

Clouds

Clouds

Clouds

Clouds

Clouds

Clouds

Clouds

Clouds

Clouds

Clouds

Clouds

Clouds

Clouds

Clouds

Clouds

Clouds

Clouds

Clouds

Clouds

Clouds

Clouds

Clouds

Clouds

Clouds

Clouds

Clouds

Clouds

Clouds

Clouds

Clear

Clear

Clear

Clear

Clear

Clear

Clear

Clear

Clear

Clear
Temperature 66°F65°F66°F68°F72°F76°F80°F80°F80°F80°F80°F78°F76°F75°F75°F74°F74°F73°F72°F72°F72°F72°F72°F72°F72°F73°F75°F77°F78°F79°F80°F80°F80°F80°F79°F78°F76°F75°F75°F75°F74°F74°F73°F73°F72°F72°F72°F71°F
Feels Like 66°F64°F66°F68°F72°F76°F80°F81°F81°F81°F80°F79°F76°F75°F75°F74°F74°F73°F72°F72°F73°F73°F73°F73°F73°F73°F76°F78°F79°F79°F80°F82°F82°F80°F79°F79°F77°F76°F76°F75°F75°F74°F74°F73°F72°F72°F72°F71°F
Cloudiness 100%100%100%99%98%96%86%78%60%64%66%75%78%82%100%98%89%84%70%68%54%55%59%55%55%52%41%27%32%35%39%46%74%67%49%41%37%33%9%6%4%5%5%5%5%4%5%5%
Visibility 6 mi6 mi6 mi6 mi6 mi6 mi6 mi6 mi6 mi6 mi6 mi6 mi6 mi6 mi6 mi6 mi6 mi6 mi6 mi6 mi6 mi6 mi6 mi6 mi6 mi6 mi6 mi6 mi6 mi6 mi6 mi6 mi6 mi6 mi6 mi6 mi6 mi6 mi6 mi6 mi6 mi6 mi6 mi6 mi6 mi6 mi6 mi6 mi
Precipitation 0%0%0%0%0%0%0%0%0%0%0%0%0%0%0%0%0%0%0%0%0%0%0%0%0%0%0%0%0%0%0%0%0%0%0%0%4%0%0%0%0%0%0%0%0%0%0%0%
Humidity 75%76%75%72%67%60%54%53%53%53%54%60%65%67%67%68%69%71%72%71%72%74%76%78%79%79%74%69%66%63%61%60%60%61%63%66%70%71%70%70%71%70%70%72%73%73%74%76%
Dew Point 58°F57°F58°F59°F60°F61°F61°F61°F61°F61°F62°F63°F63°F63°F63°F63°F63°F63°F62°F62°F63°F64°F64°F65°F65°F66°F66°F66°F66°F66°F65°F65°F64°F65°F65°F66°F66°F65°F65°F64°F64°F64°F63°F63°F63°F63°F63°F63°F
Pressure 30.15"30.15"30.15"30.15"30.18"30.18"30.15"30.12"30.09"30.06"30.06"30.06"30.06"30.09"30.09"30.09"30.09"30.09"30.06"30.06"30.06"30.03"30.03"30.03"30.03"30.06"30.06"30.09"30.09"30.06"30.06"30.03"30"30"29.97"30"30"30"30.03"30.03"30.03"30"30"30"30"30"30"30"
Wind Speed 7.7 mph7.7 mph7.7 mph7.5 mph7.1 mph5.7 mph5.4 mph5.4 mph5 mph5.5 mph6 mph6 mph6 mph6.8 mph6.1 mph5.4 mph4.4 mph5.6 mph5.9 mph5.8 mph5.3 mph4.8 mph4.4 mph4.5 mph4 mph3.4 mph3.4 mph4.8 mph5.5 mph5.2 mph4.8 mph4.8 mph5.6 mph6.4 mph6.8 mph7 mph7.1 mph6.3 mph5.9 mph5.5 mph5.5 mph5 mph4.3 mph5 mph4.6 mph4.4 mph4.5 mph5 mph
Wind
Direction
102°
ESE
99°
E
104°
ESE
108°
ESE
113°
ESE
128°
SE
151°
SSE
176°
S
208°
SSW
233°
SW
251°
WSW
274°
W
307°
NW
329°
NNW
339°
NNW
341°
NNW

N
56°
NE
68°
ENE
90°
E
110°
ESE
126°
SE
140°
SE
150°
SSE
157°
SSE
154°
SSE
155°
SSE
154°
SSE
161°
SSE
174°
S
188°
S
207°
SSW
225°
SW
240°
WSW
256°
WSW
276°
W
299°
WNW
311°
NW
319°
NW
328°
NNW
342°
NNW
344°
NNW
17°
NNE
55°
NE
67°
ENE
71°
ENE
64°
ENE
46°
NE

Daily Forecast

Date High Low Precip. Humidity
Today
Oct 21

Clouds
80 °F
65 °F
0%
54%
Friday
Oct 22

Clouds
80 °F
72 °F
0%
62%
Saturday
Oct 23

Clouds
83 °F
71 °F
2%
52%
Sunday
Oct 24

Clouds
84 °F
72 °F
0%
57%
Monday
Oct 25

Clouds
82 °F
73 °F
20%
58%
Tuesday
Oct 26

Rain
82 °F
75 °F
81%
67%
Wednesday
Oct 27

Rain
75 °F
69 °F
28%
59%
Thursday
Oct 28

Rain
79 °F
71 °F
100%
89%
Friday
Oct 29

Rain
75 °F
65 °F
50%
63%
Saturday
Oct 30

Clear
68 °F
57 °F
0%
36%
Sunday
Oct 31

Clear
72 °F
57 °F
0%
33%
Monday
Nov 1

Clear
74 °F
60 °F
0%
37%
Tuesday
Nov 2

Clear
77 °F
63 °F
0%
42%
Wednesday
Nov 3

Clear
78 °F
64 °F
0%
49%
Thursday
Nov 4

Clear
79 °F
66 °F
0%
50%
Friday
Nov 5

Clear
81 °F
67 °F
0%
56%

Temperature 8-14 Day Outlook



Precipitation 8-14 Day Outlook




Quick Links
Cedar Key News
Cedar Key Photos
Cedar Key Videos




About Us
Contact Us
Site Map
Search Site
Advertise With Us
   
CedarKey.USGulf.info
THE CEDAR KEY WEBSITE

Copyright 2021, Coastal Town
Privacy    |    Legal